"Pseudo-MPEC" for C25AN52

Created 2020 Feb 18 3:07:08 UT using Find_Orb

Click here for an explanation of pseudo-MPECs

 
 Astrometry: 
     C25AN52  C2020 02 14.50164 12 17 07.68 +19 55 29.5    ~2ECq 21.5 GVNEOCPG96
     C25AN52  C2020 02 14.50679 12 17 06.69 +19 55 32.6    ~2ECq 21.4 GVNEOCPG96
     C25AN52  C2020 02 14.51193 12 17 05.58 +19 55 33.8    ~2ECq 22.2 GVNEOCPG96
     C25AN52  C2020 02 14.51708 12 17 04.57 +19 55 36.5    ~2ECq 20.8 GVNEOCPG96
     C25AN52 KC2020 02 15e_JwA118q3=sxt[Astrometryhs^Z0kG#Z!Uua*[+ouVGA2/9LfxL01
     C25AN52 KC2020 02 15F!gs9!^+I;eJpa2BqIqMJ4I]wb7I(5J]VwvX5''redacted;Pm+.L01
     C25AN52 KC2020 02 15q*i$p(j?eg'jclnclickFHFCZ[J;fqGf%A0-yf$'VCGw%#ABo6irL01
     C25AN52 KC2020 02 15\f,qjH7bo$Agy+OxqSY'PZ$/^FR-6uYrafCQ4[m]9i$lthereSDlL01
     C25AN52 KC2020 02 15`#Mk^RvR,)h'c:B)7fort=LATe0X1_fUQLYX=q0rm$P^,9xNBj9xH21
     C25AN52 KC2020 02 15G\.ZmmFIxL\WDSA8@PvLDOU@?14[/[qroe?o4BJOf#J(Wb-9)Qh^H21
     C25AN52 KC2020 02 15Lao`BYu:QkYp`mexplanationh\qqHtB*+^-8Q6D?Npw0#V+qavPH21
     C25AN52  C2020 02 16.29563 12 11 07.36 +20 06 52.0    ~2G7q 21.6 GVNEOCPI52
     C25AN52  C2020 02 16.30154 12 11 06.13 +20 06 54.5    ~2G7q 21.1 GVNEOCPI52
     C25AN52  C2020 02 16.30744 12 11 04.89 +20 06 57.0    ~2G7q 21.2 GVNEOCPI52
     C25AN52  C2020 02 16.31334 12 11 03.63 +20 06 59.4    ~2G7q 21.0 GVNEOCPI52
     C25AN52  C2020 02 17.46246 12 07 01.83 +20 13 46.2    ~2HBb 21.5 GVNEOCPG96
     C25AN52  C2020 02 17.46391 12 07 01.53 +20 13 46.7    ~2HBb 21.2 GVNEOCPG96
     C25AN52  C2020 02 17.46536 12 07 01.19 +20 13 47.2    ~2HBb 21.4 GVNEOCPG96
     C25AN52  C2020 02 17.46680 12 07 00.87 +20 13 47.5    ~2HBb 21.2 GVNEOCPG96

Station data:
(G96) Mt. Lemmon Survey  (N32.442754 W110.788720)  US/Arizona.  Observers T.
   A. Pruyne, B. M. Africano, E. J. Christensen, G. A. Farneth, D. C. Fuls,
   A. R. Gibbs, A. D. Grauer, H. Gröller, J. A. Johnson, R. A. Kowalski, S.
   M. Larson, G. J. Leonard, D. Rankin, R. L. Seaman, F. C. Shelly. 1.5-m
   reflector + 10K CCD.
(H21) Astronomical Research Observatory, Westfield  (N39.483057 W87.968270)
   US/Illinois. 0.76-m f/3.0 astrograph + CCD.
(I52) Steward Observatory, Mt. Lemmon Station  (N32.442547 W110.788920)
   US/Arizona.  Observers T. A. Pruyne, B. M. Africano, E. J. Christensen, G.
   A. Farneth, D. C. Fuls, A. R. Gibbs, A. D. Grauer, H. Gröller, J. A.
   Johnson, R. A. Kowalski, S. M. Larson, G. J. Leonard, D. Rankin, R. L.
   Seaman, F. C. Shelly. 1.0-m reflector + CCD.
(L01) Višnjan Observatory, Tičan  (N45.290900 E13.749300)  Croatia.
   Observers K. Korlević, E. Pettarin. Measurer E. Pettarin. 1.0-m f/2.9
   reflector + CCD.

Orbital elements:  C25AN52
   Perihelion 2019 Oct 5.532958 +/- 1.1 TT = 12:47:27 (JD 2458762.032958)
Epoch 2020 Feb 17.0 TT = JDT 2458896.5   Earth MOID: 0.2404   AutoNEOCP
M 123.00301514 +/- 1.6              (J2000 ecliptic)
n   0.91474470 +/- 0.00494          Peri.    2.79589 +/- 0.7
a   1.05100015 +/- 0.00378          Node   358.67390 +/- 0.7
e   0.4195106 +/- 0.014             Incl.   14.94409 +/- 0.8
P   1.08/393.54d           H 21.6   G  0.15   U  9.2  
q 0.61009435 +/- 0.017    Q 1.49190594 +/- 0.00968
From 19 observations 2020 Feb. 14-17; mean residual 0".28
Residuals in arcseconds: 
200214 G96  .35-  .63-    200215 L01  .17+  .08+    200216 I52  .03-  .23+    
200214 G96  .44+  .53+    200215 H21  .21+  .36+    200217 G96  .02+  .03+    
200214 G96  .49-  .20-    200215 H21  .16-  .27+    200217 G96  .28+  .05+    
200214 G96  .00   .57+    200215 H21  .30+  .20-    200217 G96  .03-  .07+    
200215 L01  .22-  .01-    200216 I52  .47-  .31-    200217 G96  .09-  .10-    
200215 L01  .11+  .33-    200216 I52  .13-  .10-    
200215 L01  .34+  .45-    200216 I52  .05+  .11+    

Ephemerides (geocentric):
Date (UTC) HH   RA              Dec         delta   r     elong  mag " sig PA
---- -- -- --  -------------   -----------  ------ ------ -----  --- ---- ---
2020 02 18 03  12 04 40.515   +20 17 32.25  .44091 1.3868 149.7 21.5 .866 111
2020 02 18 04  12 04 31.532   +20 17 45.84  .44086 1.3869 149.8 21.5 .927 112
2020 02 18 05  12 04 22.541   +20 17 59.40  .44081 1.3871 149.8 21.5 .989 112
2020 02 18 06  12 04 13.542   +20 18 12.91  .44076 1.3872 149.9 21.5 1.05 112
2020 02 18 07  12 04 04.535   +20 18 26.39  .44071 1.3874 150.0 21.5 1.12 112
2020 02 18 08  12 03 55.520   +20 18 39.82  .44067 1.3875 150.0 21.5 1.18 113
2020 02 18 09  12 03 46.497   +20 18 53.21  .44062 1.3877 150.1 21.5 1.25 113
2020 02 18 10  12 03 37.466   +20 19 06.56  .44057 1.3878 150.2 21.5 1.32 113
2020 02 18 11  12 03 28.427   +20 19 19.87  .44052 1.3879 150.2 21.5 1.39 113
2020 02 18 12  12 03 19.381   +20 19 33.13  .44048 1.3881 150.3 21.5 1.46 113
2020 02 18 13  12 03 10.326   +20 19 46.36  .44043 1.3882 150.4 21.5 1.54 113
2020 02 18 14  12 03 01.264   +20 19 59.54  .44038 1.3884 150.4 21.5 1.61 113
2020 02 18 15  12 02 52.193   +20 20 12.68  .44034 1.3885 150.5 21.5 1.69 113
2020 02 18 16  12 02 43.115   +20 20 25.78  .44029 1.3887 150.6 21.5 1.77 113
2020 02 18 17  12 02 34.029   +20 20 38.83  .44025 1.3888 150.6 21.5 1.85 114
2020 02 18 18  12 02 24.936   +20 20 51.84  .44020 1.3889 150.7 21.5 1.93 114
2020 02 18 19  12 02 15.835   +20 21 04.81  .44016 1.3891 150.7 21.5 2.01 114
2020 02 18 20  12 02 06.726   +20 21 17.73  .44012 1.3892 150.8 21.5 2.10 114
2020 02 18 21  12 01 57.609   +20 21 30.61  .44007 1.3894 150.9 21.5 2.18 114
2020 02 18 22  12 01 48.485   +20 21 43.45  .44003 1.3895 150.9 21.5 2.27 114
2020 02 18 23  12 01 39.353   +20 21 56.24  .43999 1.3897 151.0 21.5 2.36 114
2020 02 19 00  12 01 30.214   +20 22 08.99  .43994 1.3898 151.1 21.5 2.45 114
2020 02 19 01  12 01 21.067   +20 22 21.70  .43990 1.3899 151.1 21.5 2.54 114
2020 02 19 02  12 01 11.913   +20 22 34.36  .43986 1.3901 151.2 21.5 2.63 114
2020 02 19 03  12 01 02.751   +20 22 46.98  .43982 1.3902 151.3 21.5 2.73 114
2020 02 19 04  12 00 53.581   +20 22 59.55  .43978 1.3904 151.3 21.5 2.82 114
2020 02 19 05  12 00 44.405   +20 23 12.07  .43974 1.3905 151.4 21.5 2.92 114
2020 02 19 06  12 00 35.220   +20 23 24.56  .43970 1.3907 151.5 21.5 3.02 114
2020 02 19 07  12 00 26.029   +20 23 36.99  .43966 1.3908 151.5 21.5 3.12 114
2020 02 19 08  12 00 16.830   +20 23 49.38  .43962 1.3909 151.6 21.5 3.23 114
2020 02 19 09  12 00 07.624   +20 24 01.73  .43958 1.3911 151.7 21.5 3.33 114
2020 02 19 10  11 59 58.410   +20 24 14.03  .43954 1.3912 151.7 21.5 3.44 114
2020 02 19 11  11 59 49.189   +20 24 26.28  .43950 1.3914 151.8 21.5 3.55 114
2020 02 19 12  11 59 39.961   +20 24 38.49  .43947 1.3915 151.9 21.5 3.66 114
2020 02 19 13  11 59 30.726   +20 24 50.65  .43943 1.3916 151.9 21.5 3.77 114
2020 02 19 14  11 59 21.484   +20 25 02.76  .43939 1.3918 152.0 21.5 3.88 114
2020 02 19 15  11 59 12.234   +20 25 14.83  .43936 1.3919 152.1 21.5 3.99 114
2020 02 19 16  11 59 02.977   +20 25 26.85  .43932 1.3921 152.1 21.5 4.11 114
2020 02 19 17  11 58 53.713   +20 25 38.83  .43928 1.3922 152.2 21.5 4.23 114
2020 02 19 18  11 58 44.443   +20 25 50.75  .43925 1.3923 152.2 21.5 4.35 114
2020 02 19 19  11 58 35.165   +20 26 02.63  .43921 1.3925 152.3 21.5 4.47 114
2020 02 19 20  11 58 25.880   +20 26 14.46  .43918 1.3926 152.4 21.5 4.59 114
2020 02 19 21  11 58 16.588   +20 26 26.25  .43915 1.3928 152.4 21.5 4.72 114
2020 02 19 22  11 58 07.289   +20 26 37.99  .43911 1.3929 152.5 21.5 4.84 114
2020 02 19 23  11 57 57.983   +20 26 49.67  .43908 1.3930 152.6 21.5 4.97 114
2020 02 20 00  11 57 48.670   +20 27 01.31  .43905 1.3932 152.6 21.5 5.10 114
2020 02 20 01  11 57 39.351   +20 27 12.91  .43901 1.3933 152.7 21.5 5.23 114
2020 02 20 02  11 57 30.024   +20 27 24.45  .43898 1.3935 152.8 21.5 5.36 113